Location: Croagnes
(43.9363°N, 5.3265°E)
Time: 05:07:20
(UTC+00:00)

Cosmos 2297 Rocket - Pass Details

Date: 06 June 2020
Orbit: 840 x 842 km, 71.0° (Epoch: 14 July)

Event Time Altitude Azimuth Distance (km) Brightness Sun altitude
Rises 23:23:48 0° 334° (NNW) 3,405 6.5 -23.2°
Reaches altitude 10° 23:26:15 10° 334° (NNW) 2,467 5.5 -23.2°
Maximum altitude 23:31:56 85° 247° (WSW) 851 2.1 -23.3°
Enters shadow 23:33:14 55° 165° (SSE) 1,005 2.2 -23.3°
